www.pogodaiklimat.ru

Погода и климат >> Архив погоды >> Финляндия >> Йомала


ПОГОДА в Йомале

  • Прогноз погоды в Йомале
  • Монитор погоды в Йомале

АРХИВ ПОГОДЫ в Йомале

Время (UTC), дата Ветер
(напр.,м/с)
 
Видим.   Явления Облачность Т
(С)
Тd
(С)
f
(%)
Тe
(С)
Тes
(С)
Комфортность P
(гПа)
Po
(гПа)
Тmin
(С)
Tmax
(С)
R
(мм)
R24
(мм)
S
(см)
15 12.08 Ю 8-12
{13}
30 км 4/0 1000 м
[]
+19.5 +15.7 79 +21 +21 комфорт 1006.3 1004.8
18 12.08 ЮЗ 5-8
{12}
50 км ясно +17.3 +13.0 76 +17 +17 1006.0 1004.5 +17.2 +20.8
21 12.08 ЮЗ 4-6
{8}
50 км ясно +16.5 +14.1 86 +16 +16 1006.3 1004.8
00 13.08 ЮЗ 3-4
{6}
50 км 8/8 1000 м
[]
+16.4 +14.2 87 +16 +16 1006.5 1005.0
03 13.08 Ю 2-2
{3}
18 км ясно +12.9 +12.5 97 +12 +12 1005.6 1004.1
06 13.08 ЮЗ 6-9
{9}
35 км {дымка} ясно +17.7 +13.4 76 +17 +18 1005.6 1004.1 +12.7 +17.7
09 13.08 Ю 7-9
{10}
30 км 1/0 600 м
[]
+18.9 +12.7 67 +19 +22 1005.0 1003.5
12 13.08 ЮЗ 6-10
{11}
30 км 6/0 600 м
[]
+19.8 +11.5 59 +21 +24 комфорт 1005.0 1003.5
15 13.08 ЮЗ 5-8
{9}
50 км 3/0 1000 м
[]
+19.3 +13.9 71 +20 +22 1004.8 1003.3
18 13.08 Ю 4-6
{8}
45 км ясно +16.9 +14.4 85 +16 +16 1004.7 1003.2 +16.8 +20.6
21 13.08 ЮЗ 2-4
{4}
50 км 3/3 2000 м
[]
+15.9 +13.4 85 +16 +16 1004.8 1003.3
00 14.08 Ю 2-2
{3}
50 км слаб. ливневой дождь 9/0 1500 м
[]
+13.8 +12.1 89 +13 +13 1004.7 1003.2 0.2
03 14.08 З 2-4
{6}
50 км {ливн. осадки} 6/0
[]
+13.9 +10.2 78 +13 +13 1004.6 1003.0
06 14.08 ЮЗ 4-8
{8}
40 км {ливн. осадки, метель} ясно +14.9 +11.2 79 +14 +16 1005.0 1003.5 +12.4 +17.2 0.3
09 14.08 ЮЗ 6-11
{11}
35 км 8/0 600 м
[]
+17.0 +11.9 72 +16 +18 1005.6 1004.1
12 14.08 ЮЗ 6-9
{10}
35 км 5/0 1000 м
[]
+18.8 +10.7 59 +19 +22 1005.7 1004.2
15 14.08 ЮЗ 5-8
{11}
50 км 5/0 1500 м
[]
+19.1 +8.6 51 +20 +21 1005.7 1004.2
18 14.08 СЗ 1-2
{4}
50 км ясно +13.9 +11.2 84 +14 +14 1006.4 1004.9 +13.9 +19.2
21 14.08 З 2-3
{3}
50 км {ливн. осадки, дождь} 4/0 300 м
[]
+11.9 +10.9 94 +11 +11 1007.0 1005.5
00 15.08 З 2-3
{4}
35 км слаб. ливневой дождь 9/0 1500 м
[]
+11.6 +11.0 96 +10 +10 1007.1 1005.6 0.1
03 15.08 З 1-2
{3}
600 м туман {ливн. осадки} ясно +10.9 +10.5 97 +10 +10 1007.4 1005.9
06 15.08 З 3-5
{5}
50 км {ливн. осадки, туман} 1/1 2000 м
[]
+15.1 +12.8 86 +14 +17 1008.5 1006.9 +10.6 +15.1 3
09 15.08 СЗ 4-8
{8}
45 км 1/0 1000 м
[]
+18.3 +8.4 52 +18 +24 1009.2 1007.7
12 15.08 З 4-8
{9}
45 км ясно +19.6 +7.7 46 +20 +27 1009.8 1008.3
15 15.08 ЮЗ 5-8
{9}
50 км 1/0 600 м
[]
+17.7 +11.2 66 +17 +19 1010.3 1008.8
18 15.08 ЮЗ 2-4
{7}
50 км 1/1
[]
+15.8 +9.6 67 +16 +16 1010.6 1009.1 +15.1 +20.0
21 15.08 Ю 3-4
{5}
50 км 3/0
[]
+15.0 +12.8 87 +14 +14 1011.1 1009.6
00 16.08 ЮЗ 3-4
{4}
50 км 9/0 2000 м
[]
+15.6 +13.7 88 +15 +15 1011.3 1009.8
03 16.08 Ю 1-2
{3}
45 км 9/0
[]
+12.9 +11.8 93 +13 +13 1011.6 1010.1
06 16.08 ЮЗ 3-5
{6}
40 км 3/3 300 м
[]
+17.6 +14.8 84 +18 +19 1012.1 1010.6 +12.3 +17.9
09 16.08 Ю 4-6
{7}
35 км 6/6 600 м
[]
+18.8 +14.5 76 +20 +22 1012.3 1010.8
12 16.08 Ю 6-10
{10}
45 км в посл. час морось {ливн. осадки, дождь} 5/5 600 м
[]
+18.6 +13.9 74 +19 +21 1011.8 1010.3
15 16.08 Ю 7-12
{12}
45 км 6/6 600 м
[]
+18.4 +14.3 77 +18 +19 1011.0 1009.5
18 16.08 Ю 5-8
{9}
35 км {ливн. осадки, дождь} 3/3 300 м
[]
+17.4 +15.6 89 +17 +17 1010.8 1009.3 +17.2 +19.5 0.1
21 16.08 Ю 4-7
{8}
17 км 6/0 200 м
[]
+16.9 +15.9 94 +16 +16 1010.8 1009.3
00 17.08 Ю 3-5
{7}
16 км ясно +16.2 +15.5 96 +16 +16 1010.6 1009.1
03 17.08 Ю 4-5
{6}
19 км 10/0 200 м
[]
+16.9 +16.0 94 +16 +16 1010.0 1008.5
06 17.08 Ю 4-6
{6}
40 км 10/10 200 м
[]
+18.2 +16.6 90 +18 +18 1009.8 1008.3 +15.2 +18.2
09 17.08 Ю 5-8
{8}
35 км {ливн. осадки, дождь} 1/0
[]
+19.5 +13.3 67 +21 +25 комфорт 1010.9 1009.4
12 17.08 Ю 8-12
{13}
30 км {ливн. осадки, дождь} ясно +19.8 +12.6 63 +21 +23 комфорт 1010.8 1009.3
15 17.08 Ю 8-12
{12}
40 км 5/0 300 м
[]
+18.5 +15.1 81 +18 +19 1010.2 1008.7
18 17.08 Ю 5-8
{8}
40 км 1/1 300 м
[]
+17.2 +15.4 89 +17 +17 1010.3 1008.8 +17.1 +20.7
21 17.08 Ю 6-10
{11}
35 км 9/0 200 м
[]
+17.6 +16.0 90 +17 +17 1009.3 1007.8
00 18.08 Ю 5-9
{10}
40 км {дождь, морось} 9/1 300 м
[]
+17.3 +15.4 89 +17 +17 1008.5 1007.0
03 18.08 Ю 6-8
{11}
40 км слаб. ливневой дождь 10/0 300 м
[]
+16.4 +14.6 89 +15 +15 1007.7 1006.2
06 18.08 Ю 6-9
{9}
8000 м ливневой дождь 10/10 300 м
[]
+16.7 +15.6 93 +16 +16 1007.5 1006.0 +15.7 +17.7 3
09 18.08 Ю 5-9
{9}
35 км {ливн. осадки} 10/0 600 м
[]
+18.0 +14.9 82 +18 +20 1007.4 1005.9
12 18.08 Ю 6-11
{13}
40 км {ливн. осадки, дождь} 3/3 300 м
[]
+20.1 +15.8 76 +22 +25 комфорт 1006.9 1005.4
15 18.08 ЮВ 5-9
{10}
45 км 6/4 1500 м
[]
+19.1 +15.3 79 +20 +21 1005.9 1004.4
18 18.08 Ю 5-9
{9}
27 км 8/1 200 м
[]
+18.1 +16.5 90 +18 +18 1005.0 1003.5 +16.5 +20.7 0.7
21 18.08 ЮВ 3-6
{6}
4100 м сильн. дождь {ливн. осадки} 10/10 100 м
[]
+17.4 +16.8 96 +17 +17 1003.7 1002.2 5
00 19.08 Ю 6-10
{10}
7000 м сильн. дождь {ливн. осадки} 10/10 100 м
[]
+16.9 +16.2 96 +16 +16 1001.3 999.8 6
03 19.08 З 3-5
{9}
3000 м сильн. морось {ливн. осадки, дождь} 10/0 100 м
[]
+15.8 +15.3 97 +15 +15 1000.3 998.8 1
06 19.08 ЮЗ 5-7
{8}
45 км {ливн. осадки, дождь} 8/8 200 м
[]
+15.4 +13.8 90 +14 +14 1002.8 1001.3 +14.6 +18.1 31
09 19.08 ЮЗ 6-10
{10}
40 км 5/0 300 м
[]
+17.9 +13.2 74 +17 +20 1004.9 1003.4

 

Местоположение метеостанции Йомала (Финляндия): широта 60.18 долгота 19.99 высота над уровнем моря 11 м.

В архиве по умолчанию представлена погода в Йомале за последнюю неделю. Архивные данные за месяц целиком и за предыдущие месяцы, начиная с января 2011 года, Вы можете получить, выбрав интересующий диапазон дат из раскрывающегося списка и нажав кнопку "Ввод!".


*Определитесь, кто Вы:
робот инопланетянин человек

Внимание! Время в таблицах - всемирное. Для получения местного времени необходимо прибавить поправку, которая равна 1 ч.

Смотрите также архив погоды в соседних городах и на ближайших метеорологических станциях:

Погода в Йомала аэропорту (Финляндия) (8 км)
Погода в Логнес Харбор (Финляндия) (18 км)
Погода в Лемланд Нихамн (Финляндия) (25 км)
Погода в Кумлинге (Финляндия) (43 км)
Погода на Хаммарланде (Финляндия) (49 км)
Погода в Содерарме (Швеция) (57 км)
Погода в Кокар Богскар (Финляндия) (77 км)
Погода в Кустави Исокари (Финляндия) (83 км)
Погода в Сванберге (Швеция) (85 км)
Погода в Свенска Хогарна (Швеция) (86 км)

Пояснения к столбцам:

Ветер - указаны скорость ветра в м/с - средняя за 10 мин, порывы в срок и между сроками (в фигурных скобках) и направление, откуда дует ветер: С - северный, СВ - северо-восточный, В - восточный, ЮВ - юго-восточный, Ю - южный, ЮЗ - юго-западный, З - западный, СЗ - северо-западный.
Видимость - горизонтальная дальность видимости в метрах или километрах. При видимости от 1 до 10 км при отсутствии осадков обычно наблюдается дымка, при ухудшении видимости до 1 км и менее - туман. В сухую погоду видимость может ухудшаться дымом, пылью или мглою.
Явления - указаны атмосферные явления, наблюдавшиеся в срок или в последний час перед сроком; фигурными скобками обозначены явления, наблюдавшиеся между сроками (за 1-3 часа до срока); квадратными скобками обозначены град или гололедные отложения с указанием их диаметра в мм.
Облачность - указаны через наклонную черту общая и нижняя облачность в баллах и высота нижней границы облаков в метрах; квадратными скобками обозначены формы облаков: Ci - перистые, Cs - перисто-слоистые, Cc - перисто-кучевые, Ac - высококучевые, As - высокослоистые, Sc - слоисто-кучевые, Ns - слоисто-дождевые, Cu - кучевые, Cb - кучево-дождевые. Подробнее классификацию облаков см. в Атласе облаков (PDF).
T - Температура воздуха - температура, измеренная на высоте 2 м над землей.
Td - Температура точки росы - температура, при понижении до которой содержащийся в воздухе водяной пар достигнет насыщения.
f - Относительная влажность воздуха - влажноcть воздуха, измеренная на высоте 2 м над землей.
Te - Эффективная температура - температура, которую ощущает одетый по сезону человек в тени. Характеристика душности погоды. При расчете учитывается влияние влажности воздуха и скорости ветра на теплоощущения человека.
Tes - Эффективная температура на солнце - температура, которую ощущает человек, с поправкой на солнечный нагрев. Характеристика знойности погоды. Зависит от высоты солнца над горизонтом, облачности и скорости ветра. Ночью, в пасмурную погоду, а также при ветре 12 м/с и более поправка равна нулю.
P - Атмосферное давление - приведенное к уровню моря атмосферное давление.
Po - Атмосферное давление - измеренное на уровне метеостанции атмосферное давление.
Tmin - Минимальная температура - минимум температуры воздуха на высоте 2 м над землей.
Tmax - Максимальная температура - максимум температуры воздуха на высоте 2 м над землей.
R - Количество осадков - Количество выпавших осадков за период времени, мм. При наведении курсора мыши на число - период времени, за который выпало указанное количество осадков.
R24 - Количество осадков - Количество выпавших осадков за 24 часа, мм.
S - Снежный покров - Высота снежного покрова, см. При наведении курсора мыши на число - состояние снежного покрова и степень покрытия местности в баллах.